logo
Search for airport 
image banner adimage banner adimage banner ad
image banner ad

SBMA - Joao Correa Da Rocha

Located in Maraba, Brazil

ICAO - SBMA, IATA - MAB

Data provided by Airmate  

General information

Coordinates: S5°22'5" W49°8'17"
Elevation is 357 feet MSL.
Magnetic variation is -20.713747341° East
View others Airports in Pará

Operational data

Special qualification required
Current time UTC:
Current local time:
Weather
METAR: SBMA 232100Z 22004KT 9999 FEW025 33/17 Q1013
TAF: TAF SBMA 232100Z 2400/2412 07006KT CAVOK TN24/2409Z TX29/2412Z BECMG 2403/2405 34005KT BECMG 2408/2411 26005KT 6000 NSC RMK PGB
View NOTAMs / SUP AIP / TFR affecting this airport [VIEW]
Communications frequencies: [VIEW]

Runways:

RWY identifierQFULength (ft)Width (ft)SurfaceLDA (ft)
256562148ASPH
076562148ASPH

Airport contact information

Address: Maraba Brazil

Satellite view of SBMA